EW6030 Weather Reports


Display with metric or nautical units.
time (UTC)temp
F
wind
direction
speed
MPH
gust
MPH
rain 1hr
in
rain 24hr
in
rain mn
in
humidity
%
barometer
mb
20260902004543 79 55 0.0 0.0 0.00 0.00 0.00 75 1008.9
20260902003043 80 55 0.0 0.0 0.00 0.00 0.00 75 1008.7
20260902001543 80 55 0.0 0.0 0.00 0.00 0.00 76 1008.8
20260902000050 81 55 0.0 0.0 0.00 0.00 0.00 76 1008.8
20260901234549 81 55 0.0 0.0 0.00 0.00 0.00 76 1008.8
20260901233041 82 55 0.0 0.0 0.00 0.00 0.00 76 1008.6
20260901231542 83 55 0.0 0.0 0.00 0.00 0.00 76 1008.6
20260901230045 83 55 0.0 0.0 0.00 0.00 0.00 76 1008.8
20260901224540 82 55 0.0 0.0 0.00 0.00 0.00 75 1008.8
20260901223040 82 55 0.0 0.0 0.00 0.00 0.00 75 1008.6
20260901221603 82 55 0.0 0.0 0.00 0.00 0.00 75 1008.5
20260901220039 81 55 0.0 0.0 0.00 0.00 0.00 75 1008.2
20260901214537 83 58 0.0 0.0 0.00 0.00 0.00 75 1008.4
20260901213058 84 57 0.0 0.0 0.00 0.00 0.00 72 1009.2
20260901211542 85 57 0.0 0.0 0.00 0.00 0.00 71 1009.2
20260901210038 86 57 1.0 0.0 0.00 0.00 0.00 70 1009.2
20260901204534 86 64 1.0 0.0 0.00 0.00 0.00 72 1009.1
20260901203042 86 246 0.0 0.0 0.00 0.00 0.00 74 1009.3
20260901201533 86 245 0.0 0.0 0.00 0.00 0.00 74 1009.3
20260901200041 86 88 0.0 0.0 0.00 0.00 0.00 74 1009.2
20260901194532 86 297 0.0 0.0 0.00 0.00 0.00 75 1009.1
20260901193035 87 236 0.0 0.0 0.00 0.00 0.00 75 1009.3
20260901191532 86 215 0.0 0.0 0.00 0.00 0.00 75 1009.5
20260901190031 86 93 0.0 0.0 0.00 0.00 0.00 74 1009.8
20260901184534 87 341 0.0 0.0 0.00 0.00 0.00 73 1009.3
20260901183029 87 243 0.0 0.0 0.00 0.00 0.00 74 1009.6
20260901181529 87 230 0.0 0.0 0.00 0.00 0.00 73 1009.1
20260901180028 87 72 0.0 0.0 0.00 0.00 0.00 73 1009.4
20260901174529 87 72 1.0 0.0 0.00 0.00 0.00 72 1009.7
20260901173026 88 133 0.0 0.0 0.00 0.00 0.00 71 1009.7
20260901171527 87 73 0.0 0.0 0.00 0.00 0.00 73 1009.7
20260901170022 86 72 0.0 0.0 0.00 0.00 0.00 75 1009.9
20260901164518 85 48 0.0 0.0 0.00 0.00 0.00 76 1009.8
20260901163017 84 47 0.0 0.0 0.00 0.00 0.00 76 1009.9
20260901161514 83 45 0.0 0.0 0.00 0.00 0.00 76 1010.1
20260901160010 82 46 1.0 0.0 0.00 0.00 0.00 75 1010.1
20260901154515 81 34 0.0 0.0 0.00 0.00 0.00 73 1010.1
20260901153006 79 33 0.0 0.0 0.00 0.00 0.00 72 1010.0
20260901151502 79 33 0.0 0.0 0.00 0.00 0.00 72 1010.0
20260901150001 79 33 0.0 0.0 0.00 0.00 0.00 71 1010.2
20260901144600 79 33 0.0 0.0 0.00 0.00 0.00 71 1009.6
20260901143059 78 33 0.0 0.0 0.00 0.00 0.00 71 1010.3
20260901141601 78 33 0.0 0.0 0.00 0.00 0.00 70 1010.5
20260901140054 77 33 0.0 0.0 0.00 0.00 0.00 70 1010.6
20260901134552 76 33 0.0 0.0 0.00 0.00 0.00 70 1010.3
20260901133050 76 33 0.0 0.0 0.00 0.00 0.00 71 1010.3
20260901131554 75 33 0.0 0.0 0.00 0.00 0.00 71 1010.2
20260901130049 75 33 0.0 0.0 0.00 0.00 0.00 71 1010.2
20260901124548 74 33 0.0 0.0 0.00 0.00 0.00 71 1010.2
20260901123048 73 33 0.0 0.0 0.00 0.00 0.00 71 1010.0
20260901121548 73 33 0.0 0.0 0.00 0.00 0.00 71 1009.8
20260901120046 73 33 0.0 0.0 0.00 0.00 0.00 71 1009.7
20260901114544 73 33 0.0 0.0 0.00 0.00 0.00 71 1009.6
20260901113042 73 33 0.0 0.0 0.00 0.00 0.00 71 1009.4
20260901111540 73 33 0.0 0.0 0.00 0.00 0.00 71 1009.4
20260901110039 73 33 0.0 0.0 0.00 0.00 0.00 71 1009.3
20260901104537 73 33 0.0 0.0 0.00 0.00 0.00 71 1009.2
20260901103041 73 33 0.0 0.0 0.00 0.00 0.00 71 1009.1
20260901101536 74 33 0.0 0.0 0.00 0.00 0.00 71 1009.0
20260901100034 74 33 0.0 0.0 0.00 0.00 0.00 71 1009.0
20260901094534 74 33 0.0 0.0 0.00 0.00 0.00 71 1008.9
20260901093034 74 33 0.0 0.0 0.00 0.00 0.00 71 1009.0
20260901091532 74 33 0.0 0.0 0.00 0.00 0.00 71 1009.0
20260901090031 74 33 0.0 0.0 0.00 0.00 0.00 70 1009.1
20260901084530 74 33 0.0 0.0 0.00 0.00 0.00 70 1009.2
20260901083030 74 33 0.0 0.0 0.00 0.00 0.00 70 1009.1
20260901081529 75 33 0.0 0.0 0.00 0.00 0.00 71 1009.1
20260901080028 75 33 0.0 0.0 0.00 0.00 0.00 71 1009.2
20260901074525 75 33 0.0 0.0 0.00 0.00 0.00 71 1009.0
20260901073025 75 33 0.0 0.0 0.00 0.00 0.00 71 1008.9
20260901071525 75 33 0.0 0.0 0.00 0.00 0.00 71 1008.9
20260901070027 75 33 0.0 0.0 0.00 0.00 0.00 71 1008.9
20260901064535 75 33 0.0 0.0 0.00 0.00 0.00 71 1009.0
20260901063028 75 33 0.0 0.0 0.00 0.00 0.00 71 1009.0
20260901061521 75 33 0.0 0.0 0.00 0.00 0.00 71 1009.0
20260901060020 76 33 0.0 0.0 0.00 0.00 0.00 71 1009.0
20260901054520 76 33 0.0 0.0 0.00 0.00 0.00 71 1008.9
20260901053018 76 33 0.0 0.0 0.00 0.00 0.00 71 1008.9
20260901051516 76 33 0.0 0.0 0.00 0.00 0.00 71 1008.7
20260901050016 76 33 0.0 0.0 0.00 0.00 0.00 71 1008.7
20260901044514 76 33 0.0 0.0 0.00 0.00 0.00 71 1008.7
20260901043016 76 33 0.0 0.0 0.00 0.00 0.00 71 1008.8
20260901041513 76 33 0.0 0.0 0.00 0.00 0.00 71 1008.8
20260901040011 77 33 0.0 0.0 0.00 0.00 0.00 71 1008.8
20260901034512 77 33 0.0 0.0 0.00 0.00 0.00 72 1009.0
20260901033009 77 33 0.0 0.0 0.00 0.00 0.00 71 1008.9
20260901031509 77 33 0.0 0.0 0.00 0.00 0.00 72 1009.2
20260901030008 77 33 0.0 0.0 0.00 0.00 0.00 72 1009.1
20260901024508 77 33 0.0 0.0 0.00 0.00 0.00 72 1008.9
20260901023024 77 33 0.0 0.0 0.00 0.00 0.00 72 1008.8
20260901021514 78 33 0.0 0.0 0.00 0.00 0.00 72 1008.9
20260901020007 78 33 0.0 0.0 0.00 0.00 0.00 73 1009.0
20260901014506 78 33 0.0 0.0 0.00 0.00 0.00 74 1009.0
20260901013006 79 33 0.0 0.0 0.00 0.00 0.00 74 1008.9
20260901011505 79 33 0.0 0.0 0.00 0.00 0.00 75 1008.6
20260901010007 80 33 0.0 0.0 0.00 0.00 0.00 76 1008.5